{"data":{"norad_id":55779,"epoch":"2026-05-25T00:19:08.159232Z","epoch_age_seconds":64002,"freshness":"FRESH","line1":"1 55779U 23028AQ  26145.01328888 -.00000011  00000+0  68981-5 0  9993","line2":"2 55779  70.0007  11.8169 0002638 270.7897  89.2959 14.98331181178461","mean_motion":14.98331181,"eccentricity":0.0002638,"inclination_deg":70.0007,"raan_deg":11.8169,"arg_perigee_deg":270.7897,"mean_anomaly_deg":89.2959,"bstar":6.8981e-6,"rev_number":17846,"period_min":96.106923373171,"perigee_km":570.21877888054,"apogee_km":573.88569872293,"semimajor_km":6950.1892388017,"source":"CELESTRAK","updated_at":"2026-05-25T13:38:17.885468Z"}}